Retour au catalogue

SL-16 DEB

ActifLEO
NORAD 39707·DEBRIS·🇷🇺 Russia

Lancé Dec 25, 1992 depuis Baikonur Cosmodrome

Loading…

Prochains Passages (prochaines 24 heures)

TLE

FraisSource: Space-Track

Époque: Sep 13, 2026, 23:09 UTC

1 39707U 92093JX  26256.96477599  .00001397  00000-0  53489-3 0  9998
2 39707  71.1103 344.6225 0089422 350.5391   9.4051 14.30114906 17453

Suivez SL-16 DEB en temps réel avec AllMySat

Download on the App Store